DLH2MR EDDM-LPPT

Flight info

Callsign DLH2MR
Flight time 2h 52m
Altitude 37000
Route MERSI5S MERSI Y100 TRA DCT LUTIX DCT BENOT DCT NEMOS DCT NINTU DCT MEBAK DCT REPSI DCT LERGA DCT MINSO DCT NARAK DCT AGN DCT LATEK DCT PPN DCT MIRPO DCT DGO DCT NEA DCT ARDID DCT INBOM
Aircraft A320/M-SDE2E3FGIJ1LORWXYZ/HB1

Departure

Time 2026-05-07 16:00
Airport Munich Airport (EDDM)

Arrival

Time 2026-05-07 18:53
Airport Lisbon Humberto Delgado Airport (LPPT)
Time Latitude Longitude Altitude Speed Heading
2026-05-07 15:38 48.35643 11.79268 1486 ft 0 kts 263°
2026-05-07 15:50 48.35644 11.79276 1485 ft 3 kts 263°
2026-05-07 15:51 48.35646 11.79309 1472 ft 3 kts 263°
2026-05-07 15:51 48.35649 11.79342 1474 ft 3 kts 263°
2026-05-07 15:51 48.35651 11.79370 1479 ft 3 kts 255°
2026-05-07 15:51 48.35659 11.79399 1479 ft 3 kts 223°
2026-05-07 15:52 48.35677 11.79414 1476 ft 3 kts 183°
2026-05-07 15:52 48.35697 11.79412 1478 ft 3 kts 173°
2026-05-07 15:52 48.35703 11.79411 1479 ft 0 kts 173°
2026-05-07 15:55 48.35699 11.79411 1485 ft 3 kts 173°
2026-05-07 15:55 48.35654 11.79419 1478 ft 7 kts 173°
2026-05-07 15:55 48.35603 11.79429 1481 ft 9 kts 173°
2026-05-07 15:55 48.35545 11.79439 1483 ft 8 kts 173°
2026-05-07 15:56 48.35484 11.79462 1479 ft 9 kts 147°
2026-05-07 15:56 48.35431 11.79522 1483 ft 11 kts 159°
2026-05-07 15:56 48.35330 11.79543 1481 ft 17 kts 173°
2026-05-07 15:56 48.35222 11.79562 1481 ft 15 kts 173°
2026-05-07 15:57 48.35127 11.79578 1475 ft 13 kts 173°
2026-05-07 15:57 48.35042 11.79593 1485 ft 11 kts 172°
2026-05-07 15:57 48.34980 11.79647 1481 ft 10 kts 138°
2026-05-07 15:57 48.34916 11.79683 1475 ft 12 kts 173°
2026-05-07 15:58 48.34820 11.79700 1477 ft 14 kts 174°
2026-05-07 15:58 48.34735 11.79712 1485 ft 11 kts 180°
2026-05-07 15:58 48.34673 11.79641 1480 ft 14 kts 233°
2026-05-07 15:58 48.34614 11.79521 1483 ft 14 kts 233°
2026-05-07 15:59 48.34555 11.79403 1482 ft 14 kts 233°
2026-05-07 15:59 48.34499 11.79289 1478 ft 14 kts 233°
2026-05-07 15:59 48.34435 11.79162 1478 ft 16 kts 233°
2026-05-07 15:59 48.34375 11.79017 1478 ft 18 kts 251°
2026-05-07 16:00 48.34338 11.78617 1480 ft 72 kts 263°
2026-05-07 16:00 48.34255 11.77534 1484 ft 133 kts 263°
2026-05-07 16:00 48.34144 11.75947 1628 ft 166 kts 267°
2026-05-07 16:00 48.34019 11.74231 2477 ft 163 kts 264°
2026-05-07 16:01 48.33863 11.72496 3013 ft 177 kts 265°
2026-05-07 16:01 48.33701 11.70544 3354 ft 199 kts 264°
2026-05-07 16:01 48.33528 11.68337 3786 ft 221 kts 265°
2026-05-07 16:01 48.33340 11.66004 4562 ft 228 kts 265°
2026-05-07 16:02 48.33157 11.63597 5265 ft 241 kts 265°
2026-05-07 16:02 48.32982 11.61024 5881 ft 256 kts 265°
2026-05-07 16:02 48.32801 11.58336 6757 ft 261 kts 265°
2026-05-07 16:02 48.32613 11.55598 7650 ft 263 kts 264°
2026-05-07 16:03 48.32419 11.52844 8555 ft 266 kts 264°
2026-05-07 16:03 48.32220 11.50065 9452 ft 268 kts 264°
2026-05-07 16:03 48.32018 11.47305 10294 ft 271 kts 263°
2026-05-07 16:03 48.31808 11.44480 11085 ft 273 kts 263°
2026-05-07 16:04 48.31595 11.41626 11872 ft 277 kts 263°
2026-05-07 16:04 48.31379 11.38729 12663 ft 280 kts 263°
2026-05-07 16:04 48.31161 11.35808 13451 ft 283 kts 263°
2026-05-07 16:04 48.30845 11.32883 14160 ft 286 kts 253°
2026-05-07 16:05 48.29987 11.30160 14812 ft 292 kts 237°
2026-05-07 16:05 48.28564 11.27877 15119 ft 313 kts 219°
2026-05-07 16:05 48.26589 11.26292 15293 ft 336 kts 205°
2026-05-07 16:05 48.24393 11.24913 15766 ft 344 kts 206°
2026-05-07 16:06 48.22171 11.23512 16365 ft 349 kts 206°
2026-05-07 16:06 48.19930 11.22037 16966 ft 352 kts 211°
2026-05-07 16:06 48.17982 11.19831 17548 ft 351 kts 230°
2026-05-07 16:06 48.16653 11.16851 18139 ft 350 kts 249°
2026-05-07 16:07 48.15880 11.13383 18733 ft 351 kts 255°
2026-05-07 16:07 48.15168 11.09867 19330 ft 353 kts 255°
2026-05-07 16:07 48.14460 11.06376 19885 ft 356 kts 255°
2026-05-07 16:07 48.13733 11.02806 20435 ft 359 kts 255°
2026-05-07 16:08 48.12996 10.99217 20972 ft 362 kts 254°
2026-05-07 16:08 48.12246 10.95591 21437 ft 367 kts 254°
2026-05-07 16:08 48.11486 10.91926 21896 ft 371 kts 254°
2026-05-07 16:08 48.10715 10.88206 22393 ft 375 kts 254°
2026-05-07 16:09 48.09939 10.84476 22884 ft 378 kts 254°
2026-05-07 16:09 48.09151 10.80692 23400 ft 381 kts 254°
2026-05-07 16:09 48.08359 10.76891 23850 ft 384 kts 254°
2026-05-07 16:09 48.07563 10.73072 24261 ft 386 kts 254°
2026-05-07 16:10 48.06766 10.69258 24664 ft 388 kts 253°
2026-05-07 16:10 48.05951 10.65385 25075 ft 391 kts 253°
2026-05-07 16:10 48.05129 10.61493 25482 ft 393 kts 253°
2026-05-07 16:10 48.04312 10.57630 25875 ft 395 kts 253°
2026-05-07 16:11 48.03480 10.53688 26268 ft 397 kts 253°
2026-05-07 16:11 48.02647 10.49738 26650 ft 399 kts 253°
2026-05-07 16:11 48.01808 10.45768 27043 ft 402 kts 253°
2026-05-07 16:11 48.00973 10.41825 27409 ft 404 kts 253°
2026-05-07 16:12 48.00118 10.37806 27787 ft 406 kts 253°
2026-05-07 16:12 47.99257 10.33778 28153 ft 408 kts 253°
2026-05-07 16:12 47.98386 10.29718 28523 ft 410 kts 253°
2026-05-07 16:12 47.97511 10.25648 28886 ft 412 kts 253°
2026-05-07 16:13 47.96630 10.21556 29236 ft 415 kts 253°
2026-05-07 16:13 47.95759 10.17506 29655 ft 415 kts 253°
2026-05-07 16:13 47.94875 10.13397 30004 ft 417 kts 253°
2026-05-07 16:13 47.93981 10.09242 30302 ft 419 kts 253°
2026-05-07 16:14 47.93047 10.05122 30576 ft 421 kts 251°
2026-05-07 16:14 47.92001 10.01029 30849 ft 423 kts 249°
2026-05-07 16:14 47.90895 9.97011 31122 ft 424 kts 248°
2026-05-07 16:14 47.89746 9.92955 31380 ft 426 kts 248°
2026-05-07 16:15 47.88590 9.88883 31737 ft 425 kts 248°
2026-05-07 16:15 47.87449 9.84820 32143 ft 424 kts 248°
2026-05-07 16:15 47.86324 9.80753 32520 ft 423 kts 249°
2026-05-07 16:15 47.85217 9.76701 32888 ft 422 kts 249°
2026-05-07 16:16 47.84118 9.72658 33276 ft 421 kts 249°
2026-05-07 16:16 47.83021 9.68624 33662 ft 420 kts 249°
2026-05-07 16:16 47.81922 9.64598 34025 ft 419 kts 249°
2026-05-07 16:16 47.80823 9.60583 34376 ft 417 kts 249°
2026-05-07 16:17 47.79740 9.56636 34701 ft 415 kts 249°
2026-05-07 16:17 47.78647 9.52665 34959 ft 415 kts 249°
2026-05-07 16:17 47.77547 9.48678 35195 ft 416 kts 249°
2026-05-07 16:17 47.76449 9.44704 35454 ft 416 kts 249°
2026-05-07 16:18 47.75348 9.40726 35702 ft 416 kts 249°
2026-05-07 16:18 47.74245 9.36747 35929 ft 416 kts 249°
2026-05-07 16:18 47.73139 9.32769 36176 ft 416 kts 248°
2026-05-07 16:18 47.72033 9.28800 36398 ft 416 kts 248°
2026-05-07 16:19 47.70927 9.24829 36623 ft 416 kts 248°
2026-05-07 16:19 47.69834 9.20905 36833 ft 416 kts 248°
2026-05-07 16:19 47.68725 9.16930 37041 ft 416 kts 248°
2026-05-07 16:19 47.67615 9.12963 37255 ft 416 kts 248°
2026-05-07 16:20 47.66498 9.08981 37465 ft 416 kts 248°
2026-05-07 16:20 47.65385 9.05018 37642 ft 416 kts 248°
2026-05-07 16:20 47.64273 9.01058 37894 ft 415 kts 248°
2026-05-07 16:20 47.63177 8.97164 38128 ft 414 kts 248°
2026-05-07 16:21 47.62065 8.93220 38292 ft 415 kts 248°
2026-05-07 16:21 47.60947 8.89260 38108 ft 415 kts 248°
2026-05-07 16:21 47.59829 8.85308 37922 ft 414 kts 248°
2026-05-07 16:21 47.58725 8.81410 37698 ft 414 kts 248°
2026-05-07 16:22 47.57604 8.77472 37458 ft 414 kts 248°
2026-05-07 16:22 47.56476 8.73516 37319 ft 420 kts 248°
2026-05-07 16:22 47.55331 8.69498 36998 ft 429 kts 248°
2026-05-07 16:23 47.52998 8.61328 37030 ft 437 kts 248°
2026-05-07 16:23 47.50602 8.52979 37029 ft 442 kts 248°
2026-05-07 16:24 47.48185 8.44605 37023 ft 442 kts 248°
2026-05-07 16:24 47.45772 8.36254 37012 ft 441 kts 248°
2026-05-07 16:25 47.43376 8.27962 37019 ft 442 kts 248°
2026-05-07 16:25 47.40947 8.19592 37016 ft 442 kts 248°
2026-05-07 16:26 47.38528 8.11297 37015 ft 442 kts 248°
2026-05-07 16:26 47.36087 8.02967 37017 ft 442 kts 247°
2026-05-07 16:27 47.33636 7.94634 37015 ft 442 kts 247°
2026-05-07 16:27 47.31602 7.87723 37008 ft 441 kts 247°
2026-05-07 16:28 47.28753 7.78085 37014 ft 441 kts 247°
2026-05-07 16:28 47.26300 7.69816 37014 ft 441 kts 247°
2026-05-07 16:29 47.24243 7.62919 37017 ft 441 kts 247°
2026-05-07 16:29 47.21771 7.54639 37022 ft 442 kts 247°
2026-05-07 16:30 47.19307 7.46386 37009 ft 442 kts 247°
2026-05-07 16:30 47.16770 7.38137 37013 ft 442 kts 242°
2026-05-07 16:31 47.13143 7.30853 37010 ft 444 kts 233°
2026-05-07 16:31 47.09287 7.23755 37029 ft 444 kts 233°
2026-05-07 16:32 47.05460 7.16719 37023 ft 443 kts 233°
2026-05-07 16:32 47.01611 7.09660 37027 ft 443 kts 233°
2026-05-07 16:33 46.97757 7.02609 37027 ft 442 kts 233°
2026-05-07 16:33 46.93926 6.95631 37035 ft 441 kts 233°
2026-05-07 16:34 46.90094 6.88655 37031 ft 441 kts 233°
2026-05-07 16:34 46.86238 6.81666 37034 ft 441 kts 233°
2026-05-07 16:35 46.82382 6.74707 37035 ft 441 kts 233°
2026-05-07 16:35 46.78508 6.67731 37034 ft 441 kts 233°
2026-05-07 16:36 46.74635 6.60782 37013 ft 440 kts 232°
2026-05-07 16:36 46.70788 6.53900 37022 ft 439 kts 233°
2026-05-07 16:37 46.66934 6.46989 37020 ft 439 kts 232°
2026-05-07 16:37 46.63094 6.40132 37016 ft 438 kts 232°
2026-05-07 16:38 46.59220 6.33234 37017 ft 438 kts 232°
2026-05-07 16:38 46.55370 6.26409 37010 ft 438 kts 232°
2026-05-07 16:39 46.51513 6.19581 37011 ft 438 kts 232°
2026-05-07 16:39 46.47645 6.12754 37010 ft 438 kts 232°
2026-05-07 16:40 46.43749 6.05892 37011 ft 438 kts 232°
2026-05-07 16:40 46.39873 5.99095 36998 ft 438 kts 232°
2026-05-07 16:41 46.36006 5.92317 37002 ft 437 kts 232°
2026-05-07 16:41 46.32127 5.85523 37004 ft 437 kts 232°
2026-05-07 16:42 46.28269 5.78795 37004 ft 437 kts 232°
2026-05-07 16:42 46.24374 5.72030 37003 ft 437 kts 232°
2026-05-07 16:43 46.20500 5.65298 36998 ft 437 kts 232°
2026-05-07 16:43 46.16605 5.58544 37014 ft 437 kts 232°
2026-05-07 16:44 46.12936 5.51555 37008 ft 436 kts 237°
2026-05-07 16:44 46.09506 5.44387 37007 ft 436 kts 236°
2026-05-07 16:45 46.06046 5.37193 37002 ft 436 kts 236°
2026-05-07 16:45 46.02598 5.30044 37008 ft 436 kts 236°
2026-05-07 16:46 45.99136 5.22876 37005 ft 435 kts 236°
2026-05-07 16:46 45.95672 5.15717 36994 ft 435 kts 236°
2026-05-07 16:47 45.92219 5.08609 36999 ft 436 kts 236°
2026-05-07 16:47 45.88735 5.01446 37003 ft 437 kts 236°
2026-05-07 16:48 45.85259 4.94328 37012 ft 437 kts 236°
2026-05-07 16:48 45.81758 4.87177 37002 ft 437 kts 236°
2026-05-07 16:49 45.78283 4.80092 37015 ft 437 kts 235°
2026-05-07 16:49 45.74780 4.72965 37012 ft 437 kts 235°
2026-05-07 16:50 45.71278 4.65850 37010 ft 437 kts 235°
2026-05-07 16:50 45.67782 4.58769 37002 ft 437 kts 235°
2026-05-07 16:51 45.64265 4.51667 37004 ft 437 kts 235°
2026-05-07 16:51 45.60763 4.44604 37012 ft 437 kts 235°
2026-05-07 16:52 45.57235 4.37517 37017 ft 437 kts 235°
2026-05-07 16:52 45.53724 4.30483 37022 ft 437 kts 235°
2026-05-07 16:53 45.50182 4.23398 37024 ft 437 kts 235°
2026-05-07 16:53 45.46665 4.16389 37022 ft 437 kts 234°
2026-05-07 16:54 45.43120 4.09340 37014 ft 437 kts 234°
2026-05-07 16:54 45.39590 4.02327 37008 ft 437 kts 234°
2026-05-07 16:55 45.36029 3.95288 37006 ft 437 kts 234°
2026-05-07 16:55 45.32486 3.88297 37012 ft 437 kts 234°
2026-05-07 16:56 45.28923 3.81284 37003 ft 437 kts 234°
2026-05-07 16:56 45.23592 3.70797 36981 ft 437 kts 235°
2026-05-07 16:57 45.20111 3.63695 36980 ft 437 kts 236°
2026-05-07 16:57 45.16653 3.56586 36978 ft 437 kts 235°
2026-05-07 16:58 45.13186 3.49553 36969 ft 437 kts 235°
2026-05-07 16:58 45.09676 3.42490 36972 ft 437 kts 235°
2026-05-07 16:59 45.06176 3.35466 36981 ft 437 kts 235°
2026-05-07 16:59 45.02672 3.28431 36973 ft 437 kts 235°
2026-05-07 17:00 44.99179 3.21445 36980 ft 437 kts 235°
2026-05-07 17:00 44.95673 3.14461 36981 ft 436 kts 235°
2026-05-07 17:01 44.92165 3.07471 36976 ft 436 kts 235°
2026-05-07 17:01 44.88649 3.00481 36985 ft 436 kts 234°
2026-05-07 17:02 44.85150 2.93546 36968 ft 436 kts 234°
2026-05-07 17:02 44.81742 2.86458 36964 ft 436 kts 237°
2026-05-07 17:03 44.78508 2.79296 36970 ft 436 kts 237°
2026-05-07 17:03 44.75253 2.72083 36973 ft 436 kts 237°
2026-05-07 17:04 44.71967 2.64967 36976 ft 436 kts 237°
2026-05-07 17:04 44.68632 2.57818 36969 ft 436 kts 236°
2026-05-07 17:05 44.65301 2.50681 36979 ft 437 kts 236°
2026-05-07 17:05 44.61984 2.43568 36974 ft 437 kts 236°
2026-05-07 17:06 44.58638 2.36415 36966 ft 437 kts 236°
2026-05-07 17:06 44.55308 2.29304 36970 ft 437 kts 236°
2026-05-07 17:07 44.51964 2.22181 36977 ft 437 kts 236°
2026-05-07 17:07 44.48634 2.15104 36973 ft 437 kts 236°
2026-05-07 17:08 44.45269 2.07990 36970 ft 437 kts 236°
2026-05-07 17:08 44.41931 2.00935 36965 ft 437 kts 236°
2026-05-07 17:09 44.38576 1.93857 36956 ft 436 kts 236°
2026-05-07 17:09 44.35224 1.86805 36962 ft 436 kts 236°
2026-05-07 17:10 44.31847 1.79722 36949 ft 437 kts 236°
2026-05-07 17:10 44.28492 1.72697 36952 ft 437 kts 236°
2026-05-07 17:11 44.25200 1.65573 36941 ft 437 kts 237°
2026-05-07 17:11 44.21942 1.58392 36947 ft 437 kts 237°
2026-05-07 17:12 44.18695 1.51295 36950 ft 437 kts 237°
2026-05-07 17:12 44.15407 1.44182 36934 ft 437 kts 236°
2026-05-07 17:13 44.12088 1.37042 36940 ft 437 kts 236°
2026-05-07 17:13 44.08796 1.29963 36941 ft 438 kts 236°
2026-05-07 17:14 44.05484 1.22839 36939 ft 438 kts 236°
2026-05-07 17:14 44.02167 1.15733 36937 ft 438 kts 236°
2026-05-07 17:15 43.98864 1.08687 36937 ft 438 kts 236°
2026-05-07 17:15 43.95540 1.01600 36932 ft 438 kts 236°
2026-05-07 17:16 43.92227 0.94553 36932 ft 437 kts 236°
2026-05-07 17:16 43.88866 0.87498 36930 ft 437 kts 232°
2026-05-07 17:17 43.84873 0.81179 36932 ft 438 kts 228°
2026-05-07 17:17 43.80791 0.74881 36937 ft 438 kts 228°
2026-05-07 17:18 43.76731 0.68631 36928 ft 438 kts 228°
2026-05-07 17:18 43.72670 0.62388 36927 ft 439 kts 228°
2026-05-07 17:19 43.68579 0.56095 36927 ft 439 kts 228°
2026-05-07 17:19 43.64488 0.49806 36937 ft 440 kts 228°
2026-05-07 17:20 43.60380 0.43519 36928 ft 440 kts 228°
2026-05-07 17:20 43.56297 0.37294 36939 ft 441 kts 228°
2026-05-07 17:21 43.52160 0.31004 36937 ft 442 kts 228°
2026-05-07 17:21 43.48038 0.24745 36934 ft 442 kts 228°
2026-05-07 17:22 43.43893 0.18458 36935 ft 442 kts 228°
2026-05-07 17:22 43.39769 0.12207 36938 ft 442 kts 228°
2026-05-07 17:23 43.35624 0.05953 36943 ft 442 kts 228°
2026-05-07 17:23 43.31494 -0.00263 36962 ft 442 kts 228°
2026-05-07 17:24 43.27327 -0.06522 36954 ft 443 kts 227°
2026-05-07 17:24 43.23198 -0.12718 36952 ft 443 kts 228°
2026-05-07 17:25 43.19028 -0.18972 36945 ft 443 kts 227°
2026-05-07 17:25 43.14844 -0.25214 36949 ft 444 kts 227°
2026-05-07 17:26 43.10674 -0.31411 36962 ft 444 kts 227°
2026-05-07 17:26 43.06484 -0.37630 36964 ft 444 kts 227°
2026-05-07 17:27 43.02322 -0.43800 36956 ft 444 kts 228°
2026-05-07 17:27 42.98133 -0.50011 36960 ft 444 kts 227°
2026-05-07 17:28 42.94648 -0.55158 36961 ft 444 kts 227°
2026-05-07 17:28 42.90440 -0.61370 36956 ft 444 kts 229°
2026-05-07 17:29 42.87325 -0.68528 36953 ft 444 kts 250°
2026-05-07 17:29 42.86045 -0.76801 36955 ft 446 kts 259°
2026-05-07 17:30 42.84968 -0.85091 36943 ft 447 kts 258°
2026-05-07 17:30 42.83861 -0.93453 36957 ft 448 kts 258°
2026-05-07 17:31 42.82740 -1.01809 36950 ft 448 kts 258°
2026-05-07 17:31 42.81612 -1.10173 36950 ft 448 kts 258°
2026-05-07 17:32 42.80495 -1.18480 36949 ft 448 kts 258°
2026-05-07 17:32 42.79371 -1.26810 36939 ft 448 kts 258°
2026-05-07 17:33 42.78227 -1.35180 36937 ft 449 kts 258°
2026-05-07 17:33 42.77083 -1.43521 36934 ft 449 kts 258°
2026-05-07 17:34 42.75933 -1.51857 36930 ft 449 kts 258°
2026-05-07 17:34 42.74777 -1.60207 36937 ft 450 kts 258°
2026-05-07 17:35 42.73615 -1.68549 36936 ft 450 kts 258°
2026-05-07 17:35 42.71913 -1.76748 36936 ft 449 kts 252°
2026-05-07 17:36 42.70080 -1.84842 36940 ft 449 kts 252°
2026-05-07 17:36 42.68243 -1.92973 36954 ft 449 kts 252°
2026-05-07 17:37 42.66421 -2.01035 36952 ft 448 kts 252°
2026-05-07 17:37 42.64582 -2.09136 36949 ft 447 kts 252°
2026-05-07 17:38 42.62737 -2.17202 36921 ft 446 kts 252°
2026-05-07 17:38 42.60830 -2.25152 36921 ft 445 kts 251°
2026-05-07 17:39 42.58862 -2.33134 36912 ft 444 kts 251°
2026-05-07 17:39 42.56917 -2.41066 36921 ft 443 kts 251°
2026-05-07 17:40 42.54987 -2.48968 36921 ft 443 kts 251°
2026-05-07 17:40 42.53040 -2.56909 36922 ft 443 kts 251°
2026-05-07 17:41 42.51090 -2.64846 36923 ft 443 kts 251°
2026-05-07 17:41 42.49142 -2.72727 36926 ft 442 kts 251°
2026-05-07 17:42 42.47186 -2.80595 36928 ft 441 kts 251°
2026-05-07 17:42 42.45179 -2.88467 36927 ft 441 kts 247°
2026-05-07 17:43 42.42637 -2.96022 36928 ft 442 kts 246°
2026-05-07 17:43 42.40083 -3.03546 36932 ft 442 kts 246°
2026-05-07 17:44 42.37491 -3.11134 36934 ft 443 kts 246°
2026-05-07 17:44 42.34908 -3.18672 36938 ft 443 kts 246°
2026-05-07 17:45 42.32314 -3.26241 36938 ft 443 kts 246°
2026-05-07 17:45 42.29728 -3.33753 36941 ft 442 kts 246°
2026-05-07 17:46 42.27118 -3.41309 36947 ft 443 kts 246°
2026-05-07 17:46 42.24519 -3.48827 36964 ft 443 kts 247°
2026-05-07 17:47 42.21919 -3.56325 36955 ft 443 kts 247°
2026-05-07 17:47 42.19303 -3.63853 36957 ft 443 kts 247°
2026-05-07 17:48 42.16674 -3.71387 36941 ft 443 kts 247°
2026-05-07 17:48 42.14043 -3.78903 36944 ft 443 kts 247°
2026-05-07 17:49 42.11427 -3.86357 36935 ft 442 kts 247°
2026-05-07 17:49 42.08793 -3.93845 36941 ft 442 kts 247°
2026-05-07 17:50 42.06153 -4.01349 36943 ft 442 kts 247°
2026-05-07 17:50 42.03508 -4.08807 36946 ft 441 kts 247°
2026-05-07 17:51 42.00826 -4.16176 36943 ft 441 kts 246°
2026-05-07 17:51 41.98013 -4.23540 36939 ft 442 kts 245°
2026-05-07 17:52 41.95185 -4.30876 36946 ft 441 kts 245°
2026-05-07 17:52 41.92387 -4.38165 36932 ft 441 kts 245°
2026-05-07 17:53 41.89591 -4.45488 36914 ft 439 kts 246°
2026-05-07 17:53 41.86796 -4.52790 36930 ft 438 kts 246°
2026-05-07 17:54 41.84018 -4.60014 36928 ft 437 kts 246°
2026-05-07 17:54 41.81239 -4.67226 36926 ft 436 kts 246°
2026-05-07 17:55 41.78432 -4.74474 36918 ft 436 kts 246°
2026-05-07 17:55 41.75650 -4.81643 36920 ft 436 kts 246°
2026-05-07 17:56 41.72839 -4.88894 36923 ft 436 kts 246°
2026-05-07 17:56 41.70051 -4.96061 36906 ft 437 kts 246°
2026-05-07 17:57 41.67705 -5.02064 36928 ft 436 kts 246°
2026-05-07 17:57 41.64450 -5.10380 36917 ft 429 kts 246°
2026-05-07 17:58 41.61693 -5.17397 36919 ft 423 kts 246°
2026-05-07 17:58 41.58980 -5.24302 36916 ft 422 kts 246°
2026-05-07 17:59 41.56233 -5.31268 36904 ft 422 kts 246°
2026-05-07 17:59 41.53498 -5.38187 36904 ft 418 kts 246°
2026-05-07 18:00 41.50801 -5.45008 36906 ft 417 kts 246°
2026-05-07 18:00 41.48082 -5.51869 36896 ft 417 kts 246°
2026-05-07 18:01 41.45358 -5.58708 36903 ft 418 kts 246°
2026-05-07 18:01 41.42646 -5.65508 36899 ft 418 kts 246°
2026-05-07 18:02 41.38542 -5.75748 36891 ft 417 kts 245°
2026-05-07 18:03 41.35807 -5.82567 36894 ft 416 kts 246°
2026-05-07 18:03 41.33097 -5.89330 36898 ft 416 kts 245°
2026-05-07 18:04 41.30356 -5.96137 36900 ft 416 kts 245°
2026-05-07 18:04 41.27635 -6.02883 36895 ft 416 kts 245°
2026-05-07 18:05 41.24900 -6.09650 36879 ft 416 kts 245°
2026-05-07 18:05 41.22144 -6.16426 36877 ft 416 kts 245°
2026-05-07 18:06 41.19384 -6.23200 36883 ft 416 kts 245°
2026-05-07 18:06 41.16461 -6.29791 36865 ft 420 kts 238°
2026-05-07 18:07 41.12953 -6.36022 36877 ft 421 kts 238°
2026-05-07 18:07 41.09449 -6.42250 36880 ft 421 kts 238°
2026-05-07 18:08 41.05961 -6.48436 36879 ft 420 kts 237°
2026-05-07 18:08 41.02445 -6.54658 36878 ft 420 kts 237°
2026-05-07 18:09 40.98949 -6.60817 36879 ft 420 kts 237°
2026-05-07 18:09 40.95430 -6.67018 36879 ft 420 kts 237°
2026-05-07 18:10 40.91937 -6.73160 36859 ft 419 kts 237°
2026-05-07 18:10 40.88438 -6.79295 36874 ft 419 kts 237°
2026-05-07 18:11 40.84914 -6.85450 36875 ft 418 kts 237°
2026-05-07 18:11 40.81431 -6.91548 36888 ft 417 kts 237°
2026-05-07 18:12 40.77929 -6.97662 36891 ft 416 kts 237°
2026-05-07 18:12 40.74449 -7.03709 36893 ft 415 kts 237°
2026-05-07 18:13 40.70945 -7.09792 36889 ft 415 kts 236°
2026-05-07 18:13 40.67473 -7.15816 36881 ft 415 kts 237°
2026-05-07 18:14 40.63979 -7.21865 36889 ft 415 kts 236°
2026-05-07 18:14 40.60476 -7.27906 36897 ft 413 kts 236°
2026-05-07 18:15 40.57000 -7.33896 36910 ft 412 kts 235°
2026-05-07 18:15 40.53535 -7.39867 36909 ft 412 kts 236°
2026-05-07 18:16 40.50045 -7.45871 36917 ft 412 kts 236°
2026-05-07 18:16 40.46559 -7.51841 36920 ft 411 kts 236°
2026-05-07 18:17 40.43086 -7.57772 36906 ft 411 kts 236°
2026-05-07 18:17 40.39596 -7.63727 36913 ft 411 kts 235°
2026-05-07 18:18 40.36098 -7.69680 36914 ft 411 kts 235°
2026-05-07 18:18 40.32628 -7.75576 36912 ft 410 kts 235°
2026-05-07 18:19 40.29141 -7.81498 36915 ft 410 kts 235°
2026-05-07 18:19 40.25656 -7.87407 36914 ft 410 kts 235°
2026-05-07 18:20 40.22164 -7.93306 36916 ft 409 kts 235°
2026-05-07 18:20 40.18689 -7.99177 36907 ft 409 kts 235°
2026-05-07 18:21 40.15213 -8.05034 36935 ft 408 kts 235°
2026-05-07 18:21 40.11725 -8.10889 36935 ft 407 kts 234°
2026-05-07 18:21 40.10000 -8.13783 36678 ft 401 kts 234°
2026-05-07 18:22 40.08296 -8.16639 36262 ft 393 kts 235°
2026-05-07 18:22 40.07747 -8.17561 36133 ft 391 kts 235°
2026-05-07 18:22 40.05006 -8.22148 35501 ft 380 kts 235°
2026-05-07 18:22 40.03379 -8.24865 35119 ft 378 kts 235°
2026-05-07 18:23 40.01633 -8.27426 34755 ft 379 kts 225°
2026-05-07 18:23 39.99454 -8.29396 34388 ft 385 kts 212°
2026-05-07 18:23 39.96921 -8.30621 34026 ft 393 kts 198°
2026-05-07 18:23 39.94191 -8.31127 33607 ft 397 kts 193°
2026-05-07 18:24 39.91490 -8.31533 33209 ft 395 kts 193°
2026-05-07 18:24 39.88767 -8.31944 32804 ft 392 kts 193°
2026-05-07 18:24 39.86058 -8.32358 32411 ft 390 kts 193°
2026-05-07 18:24 39.83368 -8.32773 32022 ft 388 kts 193°
2026-05-07 18:25 39.81589 -8.33049 31765 ft 386 kts 193°
2026-05-07 18:25 39.78927 -8.33464 31388 ft 384 kts 193°
2026-05-07 18:25 39.76276 -8.33871 31014 ft 382 kts 192°
2026-05-07 18:25 39.72786 -8.34402 30518 ft 379 kts 193°
2026-05-07 18:26 39.71054 -8.34877 30280 ft 371 kts 202°
2026-05-07 18:26 39.68773 -8.36224 29910 ft 362 kts 216°
2026-05-07 18:26 39.66834 -8.38261 29408 ft 355 kts 229°
2026-05-07 18:26 39.65295 -8.40747 28941 ft 352 kts 234°
2026-05-07 18:27 39.63811 -8.43268 28481 ft 350 kts 234°
2026-05-07 18:27 39.62337 -8.45761 28025 ft 347 kts 233°
2026-05-07 18:27 39.60873 -8.48234 27560 ft 344 kts 233°
2026-05-07 18:27 39.59438 -8.50653 27095 ft 341 kts 232°
2026-05-07 18:28 39.57775 -8.52829 26627 ft 340 kts 220°
2026-05-07 18:28 39.55804 -8.54514 26164 ft 339 kts 213°
2026-05-07 18:28 39.53783 -8.56089 25696 ft 337 kts 213°
2026-05-07 18:28 39.51787 -8.57650 25257 ft 334 kts 213°
2026-05-07 18:29 39.49797 -8.59208 24820 ft 332 kts 213°
2026-05-07 18:29 39.47854 -8.60733 24374 ft 330 kts 213°
2026-05-07 18:29 39.45896 -8.62271 23939 ft 328 kts 213°
2026-05-07 18:29 39.43946 -8.63802 23516 ft 326 kts 213°
2026-05-07 18:30 39.42007 -8.65321 23029 ft 324 kts 213°
2026-05-07 18:30 39.40100 -8.66812 22552 ft 323 kts 212°
2026-05-07 18:30 39.38177 -8.68314 22075 ft 321 kts 212°
2026-05-07 18:30 39.36263 -8.69808 21615 ft 320 kts 212°
2026-05-07 18:31 39.34361 -8.71294 21149 ft 319 kts 212°
2026-05-07 18:31 39.32463 -8.72777 20757 ft 317 kts 211°
2026-05-07 18:31 39.30687 -8.74429 20363 ft 314 kts 221°
2026-05-07 18:31 39.29058 -8.76310 19942 ft 313 kts 220°
2026-05-07 18:32 39.27452 -8.78154 19525 ft 313 kts 220°
2026-05-07 18:32 39.25826 -8.80017 19126 ft 312 kts 220°
2026-05-07 18:32 39.24201 -8.81876 18724 ft 311 kts 220°
2026-05-07 18:32 39.22586 -8.83721 18396 ft 308 kts 220°
2026-05-07 18:33 39.21003 -8.85531 18026 ft 306 kts 220°
2026-05-07 18:33 39.19410 -8.87355 17627 ft 305 kts 219°
2026-05-07 18:33 39.17824 -8.89171 17229 ft 303 kts 219°
2026-05-07 18:33 39.16243 -8.90975 16845 ft 302 kts 219°
2026-05-07 18:34 39.14672 -8.92765 16468 ft 301 kts 219°
2026-05-07 18:34 39.13120 -8.94528 16112 ft 300 kts 219°
2026-05-07 18:34 39.11563 -8.96296 15760 ft 298 kts 219°
2026-05-07 18:34 39.10002 -8.98068 15405 ft 297 kts 219°
2026-05-07 18:35 39.08452 -8.99830 15065 ft 296 kts 219°
2026-05-07 18:35 39.06925 -9.01566 14738 ft 295 kts 219°
2026-05-07 18:35 39.05384 -9.03313 14405 ft 294 kts 219°
2026-05-07 18:35 39.03853 -9.05047 14081 ft 293 kts 219°
2026-05-07 18:36 39.02341 -9.06764 13955 ft 284 kts 219°
2026-05-07 18:36 39.00882 -9.08419 13838 ft 276 kts 218°
2026-05-07 18:36 38.99331 -9.09748 13569 ft 271 kts 207°
2026-05-07 18:36 38.97731 -9.11150 12881 ft 284 kts 217°
2026-05-07 18:37 38.96230 -9.12820 12455 ft 285 kts 220°
2026-05-07 18:37 38.94785 -9.14574 12095 ft 285 kts 221°
2026-05-07 18:37 38.93362 -9.16329 11741 ft 283 kts 221°
2026-05-07 18:37 38.91933 -9.18073 11398 ft 282 kts 221°
2026-05-07 18:38 38.90500 -9.19783 11051 ft 280 kts 220°
2026-05-07 18:38 38.89079 -9.21447 10926 ft 279 kts 220°
2026-05-07 18:38 38.87639 -9.23114 10855 ft 278 kts 220°
2026-05-07 18:38 38.86202 -9.24766 10504 ft 277 kts 220°
2026-05-07 18:39 38.84770 -9.26408 10158 ft 275 kts 220°
2026-05-07 18:39 38.83346 -9.28039 9806 ft 274 kts 220°
2026-05-07 18:39 38.81933 -9.29659 9435 ft 272 kts 220°
2026-05-07 18:39 38.80523 -9.31277 9038 ft 270 kts 220°
2026-05-07 18:40 38.79124 -9.32881 8669 ft 268 kts 220°
2026-05-07 18:40 38.77738 -9.34469 8282 ft 267 kts 220°
2026-05-07 18:40 38.76375 -9.36029 7968 ft 265 kts 220°
2026-05-07 18:40 38.75002 -9.37597 7944 ft 266 kts 220°
2026-05-07 18:41 38.73609 -9.39187 7946 ft 267 kts 220°
2026-05-07 18:41 38.72226 -9.40765 7945 ft 267 kts 221°
2026-05-07 18:41 38.70833 -9.42357 7949 ft 268 kts 220°
2026-05-07 18:41 38.69437 -9.43952 7946 ft 268 kts 220°
2026-05-07 18:42 38.68060 -9.45522 7946 ft 268 kts 220°
2026-05-07 18:42 38.66684 -9.47090 7946 ft 256 kts 221°
2026-05-07 18:42 38.65397 -9.48556 7941 ft 240 kts 221°
2026-05-07 18:42 38.64163 -9.49962 7940 ft 237 kts 221°
2026-05-07 18:43 38.62938 -9.51358 7945 ft 235 kts 221°
2026-05-07 18:43 38.61710 -9.52756 7949 ft 237 kts 221°
2026-05-07 18:43 38.60441 -9.54095 7953 ft 235 kts 211°
2026-05-07 18:43 38.58943 -9.54859 7952 ft 236 kts 191°
2026-05-07 18:44 38.57303 -9.54885 7949 ft 237 kts 171°
2026-05-07 18:44 38.55680 -9.54466 7945 ft 238 kts 170°
2026-05-07 18:44 38.54055 -9.54046 7950 ft 238 kts 170°
2026-05-07 18:44 38.52430 -9.53633 7945 ft 238 kts 171°
2026-05-07 18:45 38.50817 -9.53120 7947 ft 240 kts 158°
2026-05-07 18:45 38.49469 -9.51859 7944 ft 245 kts 131°
2026-05-07 18:45 38.48722 -9.49897 7929 ft 251 kts 103°
2026-05-07 18:45 38.48793 -9.47715 7614 ft 253 kts 72°
2026-05-07 18:46 38.49584 -9.45704 7236 ft 254 kts 61°
2026-05-07 18:46 38.50460 -9.43738 6879 ft 255 kts 61°
2026-05-07 18:46 38.51336 -9.41764 6539 ft 254 kts 62°
2026-05-07 18:46 38.52185 -9.39844 6411 ft 240 kts 62°
2026-05-07 18:47 38.52986 -9.38025 6297 ft 231 kts 63°
2026-05-07 18:47 38.53753 -9.36279 6164 ft 225 kts 62°
2026-05-07 18:47 38.54477 -9.34626 6038 ft 219 kts 62°
2026-05-07 18:47 38.55210 -9.32946 5896 ft 213 kts 62°
2026-05-07 18:48 38.55926 -9.31299 5727 ft 210 kts 62°
2026-05-07 18:48 38.56633 -9.29673 5512 ft 209 kts 61°
2026-05-07 18:48 38.57327 -9.28079 5356 ft 206 kts 61°
2026-05-07 18:48 38.58034 -9.26456 5029 ft 213 kts 60°
2026-05-07 18:49 38.58773 -9.24780 4652 ft 220 kts 56°
2026-05-07 18:49 38.59881 -9.23375 4047 ft 231 kts 27°
2026-05-07 18:49 38.61350 -9.22542 3631 ft 229 kts 18°
2026-05-07 18:49 38.62802 -9.21771 3319 ft 220 kts 18°
2026-05-07 18:50 38.64143 -9.21055 3029 ft 203 kts 19°
2026-05-07 18:50 38.65414 -9.20378 2777 ft 193 kts 17°
2026-05-07 18:50 38.66630 -9.19732 2516 ft 188 kts 18°
2026-05-07 18:50 38.67839 -9.19089 2238 ft 188 kts 17°
2026-05-07 18:51 38.69043 -9.18448 1983 ft 187 kts 18°
2026-05-07 18:51 38.70247 -9.17806 1728 ft 188 kts 18°
2026-05-07 18:51 38.71438 -9.17169 1490 ft 179 kts 18°
2026-05-07 18:51 38.72556 -9.16571 1226 ft 169 kts 18°
2026-05-07 18:52 38.73605 -9.16011 1016 ft 158 kts 19°
2026-05-07 18:52 38.74576 -9.15492 824 ft 146 kts 18°
2026-05-07 18:52 38.75481 -9.15008 627 ft 138 kts 17°
2026-05-07 18:52 38.76367 -9.14536 455 ft 137 kts 16°
2026-05-07 18:53 38.77222 -9.14072 353 ft 124 kts 18°
2026-05-07 18:53 38.77873 -9.13731 350 ft 76 kts 23°
2026-05-07 18:53 38.78174 -9.13568 348 ft 30 kts 26°
2026-05-07 18:53 38.78338 -9.13399 349 ft 26 kts 46°
2026-05-07 18:54 38.78378 -9.13327 348 ft 8 kts 78°
2026-05-07 18:54 38.78359 -9.13272 352 ft 6 kts 141°
2026-05-07 18:54 38.78323 -9.13265 353 ft 5 kts 188°
2026-05-07 18:54 38.78294 -9.13277 352 ft 4 kts 199°
2026-05-07 18:55 38.78269 -9.13289 356 ft 4 kts 201°
2026-05-07 18:55 38.78244 -9.13302 350 ft 4 kts 202°
2026-05-07 18:55 38.78219 -9.13315 351 ft 4 kts 202°
2026-05-07 18:55 38.78196 -9.13327 354 ft 3 kts 202°
2026-05-07 18:56 38.78143 -9.13354 348 ft 12 kts 201°
2026-05-07 18:56 38.78055 -9.13401 350 ft 14 kts 202°
2026-05-07 18:56 38.77962 -9.13453 351 ft 15 kts 203°
2026-05-07 18:56 38.77864 -9.13504 353 ft 16 kts 196°
2026-05-07 18:57 38.77760 -9.13495 350 ft 15 kts 168°
2026-05-07 18:57 38.77663 -9.13468 354 ft 14 kts 168°
2026-05-07 18:57 38.77572 -9.13444 347 ft 13 kts 168°
2026-05-07 18:57 38.77487 -9.13421 350 ft 12 kts 168°
2026-05-07 18:58 38.77407 -9.13400 353 ft 11 kts 168°
2026-05-07 18:58 38.77334 -9.13380 348 ft 10 kts 168°
2026-05-07 18:58 38.77262 -9.13361 355 ft 11 kts 168°
2026-05-07 18:58 38.77191 -9.13342 351 ft 10 kts 168°
2026-05-07 18:59 38.77126 -9.13325 352 ft 9 kts 168°
2026-05-07 18:59 38.77059 -9.13306 347 ft 10 kts 166°
2026-05-07 18:59 38.77026 -9.13245 349 ft 9 kts 86°
2026-05-07 18:59 38.77010 -9.13181 355 ft 7 kts 142°
2026-05-07 19:00 38.76975 -9.13156 355 ft 4 kts 126°
2026-05-07 19:00 38.76975 -9.13125 350 ft 3 kts 82°
2026-05-07 19:00 38.76979 -9.13103 352 ft 2 kts 78°
2026-05-07 19:00 38.76981 -9.13094 350 ft 0 kts 76°